Weather History for Klawock, AK

Change the Weather History Date:

Wednesday, May 8, 2013

  Actual Average Record
Temperature  
Mean Temperature 50 °F -  
Max Temperature 64 °F 52 °F 75 °F (2005)
Min Temperature 35 °F 36 °F 30 °F (2007)
Degree Days  
Heating Degree Days 16    
Moisture  
Dew Point 37 °F    
Average Humidity 72    
Maximum Humidity 100    
Minimum Humidity 40    
Precipitation  
Precipitation 0.01 in - - ()
Sea Level Pressure  
Sea Level Pressure 30.10 in    
Wind  
Wind Speed 1 mph (SW)    
Max Wind Speed 9 mph    
Max Gust Speed -    
Visibility 8 miles    
Events Fog    
Averages and records for this station are not official NWS values.
T = Trace of Precipitation, MM = Missing Value Source: NWS Daily Summary

Daily Weather History Graph

Daily Weather History Graph

Search for Another Location

Airport:

Trip Planner

Search our weather history database for the weather conditions in past years. The results will help you decide how hot, cold, wet, or windy it might be!

Date:

Astronomy

May. 08, 2013 Rise Set
Actual Time 4:54 AM AKDT 8:44 PM AKDT
Civil Twilight 4:07 AM AKDT 9:31 PM AKDT
Nautical Twilight 3:01 AM AKDT 10:38 PM AKDT
Astronomical Twilight 1:21 AM AKDT 12:16 AM AKDT
Moon 4:20 AM AKDT (5/8) 7:41 PM AKDT (5/8)
Length of Visible Light 17h 23m
Length of Day
15h 50m
Waning Crescent, 1% of the Moon is Illuminated
May 8
Waning Crescent
May 9
New
May 17
First Quarter
May 24
Full
May 31
Last Quarter

Hourly Weather History & Observations

Time (AKDT) Temp. Dew Point Humidity Pressure Visibility Wind Dir Wind Speed Gust Speed Precip Events Conditions
12:53 AM 41.0 °F 39.0 °F 93% 30.07 in 10.0 mi Calm Calm - N/A   Clear
1:53 AM 37.0 °F 36.0 °F 96% 30.07 in 10.0 mi Calm Calm - N/A   Clear
2:53 AM 37.0 °F 34.0 °F 89% 30.07 in 10.0 mi Calm Calm - N/A   Partly Cloudy
3:53 AM 36.0 °F 34.0 °F 93% 30.08 in 10.0 mi Calm Calm - N/A   Clear
4:11 AM 35.6 °F 33.8 °F 93% 30.07 in 1.8 mi Calm Calm - N/A   Partly Cloudy
4:25 AM 35.6 °F 35.6 °F 100% 30.08 in 3.0 mi Calm Calm - N/A   Partly Cloudy
4:33 AM 37.4 °F 35.6 °F 93% 30.07 in 1.5 mi Calm Calm - N/A   Scattered Clouds
4:35 AM 37.4 °F 35.6 °F 93% 30.07 in 0.8 mi Calm Calm - N/A   Mist
4:53 AM 35.1 °F 34.0 °F 96% 30.08 in 0.2 mi Calm Calm - N/A Fog Fog
5:53 AM 35.1 °F 34.0 °F 96% 30.08 in 2.0 mi Calm Calm - 0.01 in   Scattered Clouds
6:01 AM 35.6 °F 35.6 °F 100% 30.07 in 10.0 mi Calm Calm - N/A   Partly Cloudy
6:53 AM 39.0 °F 37.9 °F 96% 30.09 in 10.0 mi Calm Calm - N/A   Clear
7:53 AM 46.0 °F 39.9 °F 79% 30.09 in 10.0 mi Calm Calm - N/A   Clear
8:53 AM 52.0 °F 42.1 °F 69% 30.09 in 10.0 mi Calm Calm - N/A   Clear
9:53 AM 54.0 °F 39.0 °F 57% 30.09 in 10.0 mi WSW 3.5 mph - N/A   Clear
10:53 AM 59.0 °F 37.9 °F 46% 30.09 in 10.0 mi WSW 3.5 mph - N/A   Clear
11:53 AM 63.0 °F 39.0 °F 41% 30.09 in 10.0 mi WSW 5.8 mph - N/A   Clear
12:53 PM 64.0 °F 39.9 °F 41% 30.10 in 10.0 mi WSW 8.1 mph - N/A   Clear
1:53 PM 63.0 °F 37.9 °F 40% 30.10 in 10.0 mi SW 6.9 mph - N/A   Clear
2:53 PM 64.0 °F 41.0 °F 43% 30.11 in 10.0 mi WSW 9.2 mph - N/A   Clear
3:53 PM 62.1 °F 39.0 °F 43% 30.12 in 10.0 mi SSW 6.9 mph - N/A   Clear
4:53 PM 60.1 °F 37.0 °F 42% 30.12 in 10.0 mi SSW 6.9 mph - N/A   Clear
5:53 PM 60.1 °F 36.0 °F 41% 30.12 in 10.0 mi Variable 5.8 mph - N/A   Clear
6:53 PM 57.0 °F 36.0 °F 45% 30.12 in 10.0 mi South 5.8 mph - N/A   Clear
7:53 PM 54.0 °F 37.0 °F 53% 30.13 in 10.0 mi SSW 4.6 mph - N/A   Clear
8:53 PM 48.9 °F 37.0 °F 64% 30.14 in 10.0 mi Calm Calm - N/A   Clear
9:53 PM 46.9 °F 39.0 °F 74% 30.15 in 10.0 mi Calm Calm - N/A   Clear
10:53 PM 45.0 °F 37.9 °F 76% 30.15 in 10.0 mi Calm Calm - N/A   Clear
11:53 PM 44.1 °F 41.0 °F 89% 30.16 in 10.0 mi Calm Calm - N/A   Clear